[[{"header":{"parameterUnit":"m.s-1","parameterCategory":2,"la1":30.2991,"la2":30.254,"lo1":-89.0895,"lo2":-89.0444,"dy":0.0017,"dx":0.0017,"nx":28,"ny":28,"refTime":"2025-12-18T09:00:00:Z","depth":"0","parameterNumber":2,"parameterNumberName":"U-component_of_CURRENTS"},"data":[0,0,0,0,0,0,0,0,0,0,0,0,0,0,0,0,0,0,0,0,0,0,0,0,0,0,0,0,0,0,0,0,0,0,0,0,0,0,0,0,0,0,0,0,0,0,0,0,0,0,0,0,0,0,0,0,0,0,0.1983,0.1983,0,0.1956,0.1955,0.1955,0.1925,0.1925,0.1924,0.1924,0.1882,0.1882,0.1881,0,0,0,0,0,0,0,0,0,0,0,0,0,0.2019,0.2018,0.1983,0.1983,0.1983,0.1956,0.1955,0.1955,0.1925,0.1924,0.1924,0.1924,0.1883,0.1882,0.1881,0,0,0,0,0,0,0,0,0,0,0,0,0,0.1998,0.2018,0.1983,0.1965,0.1964,0.1956,0.1955,0.1955,0.1925,0.1924,0.1924,0.1924,0.1883,0.1882,0.1881,0.1883,0,0,0.1877,0.1876,0,0,0,0,0,0,0,0,0.1999,0.1996,0.1968,0.1967,0.1965,0.1944,0.1953,0.193,0.1925,0.1938,0.1924,0.1923,0.1903,0.19,0.1895,0.1881,0.1879,0.1877,0.1876,0.1876,0.1875,0,0,0,0,0,0,0,0.2,0.1997,0.1971,0.1968,0.1966,0.1962,0.1958,0.1948,0.1923,0.1937,0.1935,0.1934,0.1902,0.1896,0.1893,0.1879,0.1877,0.1876,0.1875,0.1875,0.1893,0.1895,0,0,0,0,0,0,0.2006,0.1999,0.1972,0.197,0.1982,0.1962,0.1957,0.195,0.1923,0.1919,0.1935,0.1933,0.1898,0.1895,0.1892,0.1915,0.1876,0.1875,0.1874,0.1892,0.1894,0.1895,0,0,0,0,0,0,0.2007,0.2004,0.1973,0.1985,0.1981,0.1962,0.1954,0.195,0.1947,0.1921,0.1917,0.1936,0.1898,0.1893,0.1893,0.1912,0.1874,0.1873,0.1891,0.1893,0.1894,0.1947,0,0,0,0,0,0,0.2008,0.2004,0.2004,0.1985,0.1981,0.1974,0.1954,0.195,0.1948,0.1945,0.1921,0.1917,0.1897,0.1895,0.1892,0.191,0.1872,0.1889,0.1892,0.1894,0.1944,0.1951,0.1957,0,0,0,0,0,0.2009,0.201,0.2004,0.2001,0.198,0.1975,0.1972,0.1956,0.1948,0.1951,0.1939,0.1917,0.1908,0.1895,0.1891,0.1909,0.1888,0.1891,0.1894,0.1941,0.1949,0.1956,0,0,0,0,0,0,0.2025,0.2006,0.2,0.1994,0.1989,0.197,0.1972,0.1963,0.1955,0.1955,0.1929,0.1924,0.1932,0.1916,0.1903,0.1923,0.1896,0.1898,0.1934,0.1941,0.1948,0.1948,0.1871,0,0,0,0,0,0.203,0.2024,0.201,0.2008,0.2006,0.1992,0.1989,0.1981,0.1971,0.1966,0.1948,0.1938,0.1941,0.1937,0.193,0.1938,0.1934,0.195,0.1956,0.1961,0.196,0.1987,0.1995,0.1904,0.1904,0.1904,0,0,0.2034,0.2025,0.2021,0.2011,0.2005,0.2007,0.1989,0.1989,0.1993,0.1964,0.1962,0.1957,0.1949,0.1959,0.1962,0.1947,0.1985,0.1965,0.1969,0.1965,0.1991,0.1999,0.2007,0.1906,0.1906,0.1905,0,0,0.2044,0.2036,0.2035,0.2033,0.2029,0.2024,0.2027,0.2013,0.2009,0.2015,0.1999,0.2008,0.2,0.1999,0.1999,0.2037,0.2019,0.2037,0.2066,0.2092,0.21,0.2106,0.2112,0.2119,0.2039,0.2039,0.2039,0,0.2054,0.2046,0.2037,0.2039,0.204,0.2034,0.2039,0.2039,0.2027,0.2037,0.2023,0.2038,0.2022,0.2049,0.2057,0.2051,0.2056,0.2037,0.21,0.2107,0.2113,0.2117,0.2124,0.2042,0.2042,0.2041,0.2041,0,0.2059,0.2058,0.2061,0.206,0.2063,0.2068,0.2068,0.2076,0.2077,0.2082,0.2109,0.2096,0.2105,0.2107,0.209,0.2127,0.2113,0.2107,0.208,0.2125,0.2126,0.2133,0.2046,0.2045,0.2044,0.2044,0,0,0.2064,0.2064,0.2064,0.2065,0.2074,0.2074,0.2098,0.2117,0.2138,0.2144,0.2171,0.218,0.2179,0.2178,0.2164,0.218,0.2218,0.2159,0.2159,0.2162,0.2267,0.2226,0.2228,0.2227,0.2228,0.2229,0.225,0,0.2071,0.2074,0.2076,0.2087,0.2088,0.2101,0.2121,0.2145,0.2166,0.2191,0.2208,0.2225,0.2205,0.2208,0.2227,0.222,0.2237,0.2212,0.2224,0.2224,0.2181,0.2235,0.216,0.2171,0.2256,0.2257,0.2258,0,0.2069,0.2072,0.2078,0.2094,0.2098,0.2109,0.2147,0.2167,0.2218,0.2239,0.2276,0.228,0.2304,0.2276,0.2306,0.2293,0.2282,0.2277,0.2278,0.2224,0.2195,0.2141,0.2178,0.2161,0.2267,0.2266,0.2265,0,0.2059,0.2072,0.2075,0.2078,0.21,0.2114,0.2135,0.2184,0.2215,0.2267,0.2297,0.2333,0.2347,0.2356,0.2343,0.2329,0.2372,0.2352,0.2308,0.2304,0.2233,0.2221,0.2252,0.2376,0.2376,0.2376,0.2376,0,0.2053,0.2055,0.2068,0.2067,0.2087,0.2107,0.2144,0.2179,0.2237,0.2276,0.2313,0.2345,0.2369,0.2391,0.2372,0.2363,0.2401,0.2321,0.2315,0.2249,0.2238,0.2212,0.2197,0.2377,0.2377,0.2377,0.2376,0,0.2032,0.204,0.2045,0.2068,0.2077,0.2092,0.2144,0.2171,0.2233,0.2284,0.23,0.237,0.2397,0.2411,0.2427,0.2397,0.233,0.2373,0.2283,0.2265,0.219,0.218,0.2097,0.2025,0.2326,0.2325,0.2325,0,0.2018,0.2017,0.2039,0.2042,0.2049,0.2077,0.2095,0.2162,0.2194,0.229,0.2307,0.2366,0.2396,0.242,0.2386,0.2364,0.2302,0.2265,0.222,0.2186,0.2172,0.2089,0.2029,0.2147,0.2145,0.2143,0.2142,0,0.1995,0.2003,0.2008,0.2016,0.2027,0.2046,0.2078,0.2106,0.2179,0.2225,0.2286,0.2325,0.2367,0.2325,0.2307,0.2277,0.2172,0.2228,0.2226,0.2063,0.1943,0.187,0.2124,0.2127,0.2129,0.213,0.2131,0.2131,0.1979,0.1976,0.1981,0.1982,0.1993,0.1995,0.1988,0.2029,0.207,0.2113,0.2207,0.2241,0.2261,0.2234,0.2187,0.2095,0.2071,0.2027,0.2026,0.1953,0.1855,0.2067,0.2044,0.2045,0.2046,0.2046,0.2047,0,0.1948,0.1942,0.1943,0.1932,0.1912,0.1939,0.1954,0.1935,0.1938,0.2027,0.2068,0.2101,0.2077,0.2073,0.2003,0.1918,0.1817,0.187,0.1757,0.1711,0.1942,0.1908,0.1814,0.1814,0.1815,0.1815,0.1815,0.1815,0.1931,0.191,0.1902,0.1848,0.1834,0.1783,0.1773,0.1762,0.1807,0.1826,0.1855,0.1904,0.1992,0.1996,0.1907,0.1841,0.1703,0.1624,0.1616,0.1824,0.1839,0.1854,0.1822,0.1711,0.1711,0.131,0.1307,0.1305]},{"header":{"parameterUnit":"m.s-1","parameterCategory":2,"la1":30.2991,"la2":30.254,"lo1":-89.0895,"lo2":-89.0444,"dy":0.0017,"dx":0.0017,"nx":28,"ny":28,"refTime":"2025-12-18T09:00:00:Z","depth":"0","parameterNumber":3,"parameterNumberName":"V-component_of_CURRENTS"},"data":[0,0,0,0,0,0,0,0,0,0,0,0,0,0,0,0,0,0,0,0,0,0,0,0,0,0,0,0,0,0,0,0,0,0,0,0,0,0,0,0,0,0,0,0,0,0,0,0,0,0,0,0,0,0,0,0,0,0,-0.0033,-0.0033,0,-0.005,-0.005,-0.005,-0.0062,-0.0062,-0.0062,-0.0062,-0.0081,-0.0081,-0.0082,0,0,0,0,0,0,0,0,0,0,0,0,0,-0.0045,-0.0045,-0.0033,-0.0033,-0.0033,-0.005,-0.005,-0.005,-0.0062,-0.0062,-0.0062,-0.0062,-0.0081,-0.0081,-0.0082,0,0,0,0,0,0,0,0,0,0,0,0,0,-0.0049,-0.0045,-0.0033,-0.0041,-0.0042,-0.0049,-0.005,-0.005,-0.0062,-0.0062,-0.0062,-0.0062,-0.008,-0.0081,-0.0082,-0.0083,0,0,-0.0084,-0.0084,0,0,0,0,0,0,0,0,-0.0049,-0.0048,-0.004,-0.0041,-0.0042,-0.0054,-0.0061,-0.0061,-0.0062,-0.0055,-0.0062,-0.0063,-0.0072,-0.0073,-0.0076,-0.0084,-0.0085,-0.0084,-0.0084,-0.0084,-0.0084,0,0,0,0,0,0,0,-0.0048,-0.0048,-0.004,-0.004,-0.0041,-0.0055,-0.0056,-0.0061,-0.0063,-0.0055,-0.0056,-0.0058,-0.0072,-0.0076,-0.0077,-0.0085,-0.0084,-0.0084,-0.0085,-0.0085,-0.0093,-0.0093,0,0,0,0,0,0,-0.0044,-0.0047,-0.0039,-0.004,-0.0045,-0.0055,-0.0055,-0.005,-0.0063,-0.0064,-0.0058,-0.0058,-0.0074,-0.0076,-0.0077,-0.007,-0.0084,-0.0085,-0.0085,-0.0093,-0.0093,-0.0093,0,0,0,0,0,0,-0.0044,-0.0042,-0.0039,-0.0045,-0.0045,-0.0054,-0.0048,-0.005,-0.0051,-0.0064,-0.0066,-0.0056,-0.0075,-0.0076,-0.0079,-0.0071,-0.0085,-0.0086,-0.0094,-0.0093,-0.0093,-0.0061,0,0,0,0,0,0,-0.0044,-0.0042,-0.0039,-0.0044,-0.0044,-0.0036,-0.0048,-0.005,-0.0052,-0.0053,-0.0064,-0.0066,-0.0075,-0.0078,-0.008,-0.0072,-0.0086,-0.0094,-0.0093,-0.0093,-0.0062,-0.0059,-0.0057,0,0,0,0,0,-0.0044,-0.0034,-0.0038,-0.0037,-0.0038,-0.0035,-0.0037,-0.0045,-0.0052,-0.0047,-0.0058,-0.0065,-0.0078,-0.0078,-0.008,-0.0072,-0.0094,-0.0094,-0.0093,-0.0063,-0.006,-0.0057,0,0,0,0,0,0,-0.0039,-0.0035,-0.0039,-0.0029,-0.003,-0.0037,-0.0036,-0.0042,-0.0047,-0.0049,-0.0062,-0.0065,-0.0065,-0.0074,-0.0075,-0.0075,-0.0087,-0.0087,-0.0064,-0.0061,-0.0058,-0.0043,-0.0087,0,0,0,0,0,-0.0036,-0.0027,-0.0028,-0.0021,-0.002,-0.0028,-0.0029,-0.0033,-0.0038,-0.0041,-0.005,-0.006,-0.0066,-0.0067,-0.0075,-0.0073,-0.0087,-0.007,-0.0068,-0.0066,-0.0056,-0.0072,-0.007,-0.0092,-0.0092,-0.0092,0,0,-0.0033,-0.0029,-0.0025,-0.0019,-0.0022,-0.0011,-0.0028,-0.0026,-0.0018,-0.0042,-0.0036,-0.0052,-0.0064,-0.0063,-0.0064,-0.0069,-0.0069,-0.0065,-0.0063,-0.0054,-0.0072,-0.007,-0.0068,-0.0092,-0.0092,-0.0092,0,0,-0.0016,-0.0018,-0.0002,0.0001,0.0002,-0.0001,0.0002,-0.0002,-0.0005,-0.0003,-0.002,-0.0029,-0.0037,-0.0044,-0.0049,-0.0038,-0.0057,-0.0043,-0.0015,-0.0032,-0.003,-0.0028,-0.0049,-0.0049,-0.0039,-0.0039,-0.0039,0,-0.0013,0.0008,0.0001,0.0017,0.0024,0.0008,0.0027,0.0022,0.0016,0.002,0.0004,-0.001,-0.0026,-0.002,-0.0019,-0.0031,-0.0046,-0.0024,-0.0028,-0.0027,-0.0026,-0.0047,-0.0048,-0.0038,-0.0038,-0.0038,-0.0038,0,0.0018,0.0032,0.0041,0.0059,0.0065,0.0077,0.0073,0.0074,0.0065,0.0062,0.006,0.0032,0.0028,0.0016,0.0002,0.0004,-0.0012,-0.0025,-0.0033,-0.0021,-0.0045,-0.0046,-0.0035,-0.0036,-0.0036,-0.0037,0,0,0.0034,0.006,0.0063,0.0082,0.0089,0.0101,0.0111,0.0124,0.0142,0.0117,0.0133,0.0107,0.009,0.0083,0.0057,0.0039,0.0024,0.0013,0.0012,-0.0003,-0.0016,-0.0032,-0.0036,0.0009,0.0009,0.0009,-0.0037,0,0.0063,0.0106,0.0108,0.0147,0.0171,0.0161,0.0179,0.0184,0.0182,0.0191,0.0155,0.0157,0.0116,0.0112,0.0087,0.0045,0.0022,0.0038,-0.0028,-0.0029,-0.0042,-0.0037,-0.0038,-0.0079,-0.0039,-0.0039,-0.0039,0,0.0098,0.0124,0.0168,0.0204,0.0214,0.023,0.026,0.0276,0.0278,0.0275,0.0263,0.0233,0.0205,0.0163,0.0096,0.0107,0.0052,0.001,0.0007,-0.0017,-0.0048,-0.0083,-0.0084,-0.0198,-0.0042,-0.0042,-0.0041,0,0.0127,0.0168,0.0207,0.0218,0.0252,0.0268,0.0287,0.0304,0.0333,0.033,0.0342,0.0299,0.0283,0.0208,0.0116,0.0107,0.0036,0.0012,-0.0057,-0.0059,-0.0076,-0.0079,-0.0189,-0.0038,-0.0038,-0.0038,-0.0037,0,0.0163,0.0195,0.0224,0.0247,0.0302,0.0308,0.0365,0.0375,0.0401,0.0446,0.039,0.0405,0.0294,0.0235,0.014,0.0041,0.0053,-0.0047,-0.0069,-0.0066,-0.0068,-0.0181,-0.0249,-0.0039,-0.0039,-0.0039,-0.0038,0,0.0194,0.021,0.0261,0.0301,0.0318,0.036,0.0422,0.0467,0.0476,0.0527,0.0526,0.0489,0.0415,0.0293,0.0177,0.0083,-0.009,-0.0061,-0.0052,-0.0071,-0.0241,-0.0306,-0.0417,-0.0494,-0.0141,-0.0141,-0.0142,0,0.0215,0.0244,0.0304,0.0342,0.0362,0.0423,0.0472,0.0505,0.0559,0.0584,0.0615,0.0554,0.0534,0.0351,0.0173,0.0003,-0.0114,-0.0116,-0.0134,-0.0247,-0.0336,-0.0367,-0.0427,-0.015,-0.0151,-0.0151,-0.0151,0,0.0258,0.0275,0.0319,0.0398,0.0452,0.0524,0.0593,0.0647,0.0689,0.0729,0.0769,0.0749,0.0569,0.0407,0.0165,0.0037,-0.0206,-0.0131,-0.025,-0.0353,-0.0391,-0.0476,-0.0128,-0.0155,-0.0155,-0.0155,-0.0154,-0.0154,0.0289,0.0328,0.0383,0.0461,0.0528,0.0616,0.0685,0.076,0.085,0.0914,0.0888,0.0883,0.0615,0.0294,0.0108,-0.0239,-0.0242,-0.0341,-0.0411,-0.0431,-0.0508,-0.0169,-0.0218,-0.0218,-0.0218,-0.0218,-0.0218,0,0.0332,0.0375,0.0445,0.0534,0.0615,0.0643,0.0762,0.0835,0.0946,0.0995,0.1026,0.0867,0.0572,0.0238,-0.0223,-0.0463,-0.056,-0.061,-0.0664,-0.0714,-0.0413,-0.0415,-0.0506,-0.0506,-0.0506,-0.0506,-0.0505,-0.0505,0.0354,0.0424,0.046,0.0591,0.0656,0.0767,0.084,0.0946,0.1016,0.1059,0.1028,0.0966,0.0646,-0.0071,-0.0595,-0.0725,-0.0922,-0.0947,-0.1058,-0.0859,-0.0839,-0.082,-0.0838,-0.1016,-0.1016,-0.1322,-0.1325,-0.1328]}],[{"header":{"parameterUnit":"m.s-1","parameterCategory":2,"la1":30.2991,"la2":30.254,"lo1":-89.0895,"lo2":-89.0444,"dy":0.0017,"dx":0.0017,"nx":28,"ny":28,"refTime":"2025-12-18T09:00:00:Z","depth":"2","parameterNumber":2,"parameterNumberName":"U-component_of_CURRENTS"},"data":[0,0,0,0,0,0,0,0,0,0,0,0,0,0,0,0,0,0,0,0,0,0,0,0,0,0,0,0,0,0,0,0,0,0,0,0,0,0,0,0,0,0,0,0,0,0,0,0,0,0,0,0,0,0,0,0,0,0,0.1896,0.1896,0,0.1873,0.1872,0.1872,0.1849,0.1848,0.1848,0.1848,0.1814,0.1813,0.1812,0,0,0,0,0,0,0,0,0,0,0,0,0,0.1926,0.1925,0.1896,0.1896,0.1895,0.1873,0.1872,0.1872,0.1849,0.1848,0.1848,0.1848,0.1814,0.1813,0.1812,0,0,0,0,0,0,0,0,0,0,0,0,0,0.1908,0.1925,0.1896,0.1882,0.1881,0.1873,0.1872,0.1872,0.1849,0.1848,0.1848,0.1848,0.1814,0.1813,0.1812,0.1812,0,0,0.1809,0.1808,0,0,0,0,0,0,0,0,0.1909,0.1907,0.1884,0.1883,0.1881,0.1864,0.1871,0.1852,0.1849,0.186,0.1848,0.1848,0.1831,0.1828,0.1823,0.181,0.1809,0.1809,0.1808,0.1808,0.1807,0,0,0,0,0,0,0,0.191,0.1908,0.1885,0.1884,0.1882,0.1879,0.1876,0.1867,0.1846,0.1859,0.1857,0.1857,0.183,0.1824,0.1822,0.1808,0.1809,0.1808,0.1807,0.1807,0.1828,0.1829,0,0,0,0,0,0,0.1915,0.1909,0.1886,0.1885,0.1896,0.1879,0.1875,0.1869,0.1846,0.1843,0.1857,0.1856,0.1826,0.1823,0.1821,0.1847,0.1808,0.1807,0.1806,0.1827,0.1828,0.183,0,0,0,0,0,0,0.1916,0.1913,0.1887,0.1898,0.1894,0.1879,0.1872,0.1869,0.1869,0.1845,0.1841,0.1861,0.1826,0.1822,0.1825,0.1845,0.1806,0.1805,0.1825,0.1827,0.1829,0.1882,0,0,0,0,0,0,0.1917,0.1913,0.1915,0.1898,0.1894,0.1889,0.1872,0.1869,0.187,0.1868,0.1848,0.1844,0.1825,0.1826,0.1824,0.1842,0.1804,0.1824,0.1826,0.1828,0.1879,0.1885,0.1891,0,0,0,0,0,0.1918,0.1919,0.1915,0.1913,0.1895,0.189,0.1888,0.1875,0.1871,0.1874,0.1865,0.1845,0.1839,0.1826,0.1823,0.1842,0.1823,0.1826,0.1828,0.1876,0.1884,0.1891,0,0,0,0,0,0,0.1934,0.1917,0.1912,0.1908,0.1904,0.1887,0.189,0.1883,0.1878,0.188,0.1856,0.1852,0.1863,0.1847,0.1834,0.1856,0.1829,0.1832,0.1867,0.1875,0.1881,0.1881,0.1804,0,0,0,0,0,0.1939,0.1935,0.1922,0.1922,0.1921,0.1909,0.1907,0.1901,0.1893,0.189,0.1875,0.1867,0.1871,0.1868,0.1863,0.1872,0.1867,0.1884,0.189,0.1895,0.1895,0.192,0.1929,0.1838,0.1838,0.1838,0,0,0.1945,0.1936,0.1934,0.1925,0.1921,0.1923,0.1907,0.191,0.1914,0.1888,0.189,0.1887,0.1879,0.1891,0.1895,0.188,0.1919,0.1899,0.1903,0.19,0.1924,0.1933,0.194,0.184,0.184,0.184,0,0,0.1955,0.1949,0.195,0.1948,0.1947,0.1942,0.1946,0.1935,0.1933,0.1941,0.1927,0.1938,0.1932,0.1931,0.1932,0.197,0.1952,0.1971,0.2,0.2025,0.2033,0.2039,0.2045,0.2051,0.1973,0.1973,0.1973,0,0.1966,0.1959,0.1952,0.1955,0.1956,0.1953,0.1959,0.1959,0.195,0.1962,0.1951,0.1968,0.1955,0.198,0.199,0.1984,0.1989,0.1972,0.2033,0.204,0.2045,0.2049,0.2056,0.1976,0.1976,0.1975,0.1975,0,0.1972,0.1972,0.1976,0.1976,0.1981,0.1986,0.1987,0.1997,0.2002,0.2008,0.2036,0.2026,0.2036,0.2039,0.2023,0.206,0.2047,0.204,0.2014,0.2058,0.2059,0.2065,0.198,0.1979,0.1978,0.1978,0,0,0.1979,0.1979,0.1981,0.1983,0.1992,0.1993,0.2017,0.2037,0.2059,0.2068,0.2097,0.2108,0.2109,0.2109,0.2096,0.2112,0.215,0.2092,0.2092,0.2095,0.2197,0.2154,0.2156,0.2158,0.216,0.2161,0.2181,0,0.1986,0.199,0.1993,0.2005,0.2007,0.2021,0.2041,0.2065,0.2088,0.2115,0.2133,0.2152,0.2134,0.214,0.2158,0.2152,0.2169,0.2145,0.2155,0.2155,0.211,0.2163,0.1959,0.1958,0.2186,0.2187,0.2188,0,0.1986,0.1989,0.1997,0.2014,0.2018,0.203,0.2069,0.209,0.214,0.2162,0.2201,0.2206,0.2232,0.2206,0.2236,0.2223,0.2213,0.2208,0.2209,0.2153,0.2123,0.1951,0.196,0.2197,0.2197,0.2196,0.2195,0,0.1977,0.1991,0.1996,0.2,0.2022,0.2038,0.2059,0.2108,0.2138,0.2192,0.2222,0.2259,0.2275,0.2284,0.2273,0.2259,0.23,0.228,0.2235,0.2231,0.205,0.2028,0.2304,0.2304,0.2304,0.2304,0.2304,0,0.1972,0.1976,0.1992,0.1991,0.2013,0.2033,0.2072,0.2106,0.2164,0.2202,0.2241,0.2271,0.2297,0.2318,0.23,0.229,0.2327,0.2248,0.2241,0.2062,0.2043,0.2241,0.2233,0.2304,0.2304,0.2304,0.2304,0,0.1954,0.1963,0.197,0.1994,0.2004,0.2021,0.2074,0.2101,0.2163,0.2213,0.223,0.2298,0.2324,0.2338,0.2353,0.2322,0.2313,0.2296,0.2078,0.2046,0.2216,0.2211,0.2249,0.2248,0.2247,0.2246,0.2245,0,0.1941,0.1941,0.1966,0.197,0.1979,0.2009,0.2028,0.2094,0.2125,0.2218,0.2234,0.2292,0.2315,0.2336,0.228,0.2252,0.23,0.205,0.1989,0.2225,0.2215,0.2211,0.2208,0.1764,0.176,0.1756,0.1753,0,0.192,0.1931,0.1936,0.1947,0.196,0.1979,0.2012,0.2037,0.2109,0.2151,0.2207,0.224,0.2257,0.2137,0.2108,0.2064,0.204,0.1975,0.228,0.1821,0.1773,0.1761,0.1773,0.172,0.1723,0.1726,0.1727,0.1729,0.1906,0.1904,0.1911,0.1915,0.1927,0.1928,0.1922,0.1951,0.1986,0.1997,0.2096,0.2054,0.2037,0.1893,0.1812,0.1734,0.1883,0.1767,0.1776,0.179,0.1741,0.1696,0.1617,0.162,0.1622,0.1624,0.1626,0,0.1874,0.1872,0.1875,0.1865,0.1841,0.1876,0.1888,0.1841,0.1825,0.1845,0.1857,0.1666,0.1574,0.1557,0.1381,0.1372,0.1341,0.1309,0.1234,0.1269,0.1299,0.1223,0.0963,0.0961,0.0959,0.0958,0,0,0.1857,0.1835,0.1827,0.1772,0.1765,0.1701,0.1689,0.1627,0.1602,0.152,0.146,0.1523,0.1537,0.124,0.1181,0.1043,0.1157,0.1002,0.1534,0.1484,0.1512,0.1563,0.1486,0,0,0,0,0]},{"header":{"parameterUnit":"m.s-1","parameterCategory":2,"la1":30.2991,"la2":30.254,"lo1":-89.0895,"lo2":-89.0444,"dy":0.0017,"dx":0.0017,"nx":28,"ny":28,"refTime":"2025-12-18T09:00:00:Z","depth":"2","parameterNumber":3,"parameterNumberName":"V-component_of_CURRENTS"},"data":[0,0,0,0,0,0,0,0,0,0,0,0,0,0,0,0,0,0,0,0,0,0,0,0,0,0,0,0,0,0,0,0,0,0,0,0,0,0,0,0,0,0,0,0,0,0,0,0,0,0,0,0,0,0,0,0,0,0,0.0076,0.0076,0,0.006,0.006,0.006,0.0045,0.0045,0.0044,0.0044,0.0025,0.0025,0.0024,0,0,0,0,0,0,0,0,0,0,0,0,0,0.0063,0.0064,0.0076,0.0076,0.0076,0.006,0.006,0.006,0.0045,0.0045,0.0044,0.0044,0.0025,0.0025,0.0024,0,0,0,0,0,0,0,0,0,0,0,0,0,0.006,0.0064,0.0076,0.0067,0.0066,0.006,0.006,0.006,0.0045,0.0045,0.0044,0.0044,0.0025,0.0025,0.0024,0.0027,0,0,0.0023,0.0022,0,0,0,0,0,0,0,0,0.006,0.0061,0.0068,0.0067,0.0066,0.0054,0.0048,0.0049,0.0045,0.0053,0.0044,0.0044,0.0035,0.0034,0.0031,0.0026,0.0025,0.0023,0.0022,0.0022,0.0022,0,0,0,0,0,0,0,0.0061,0.0061,0.007,0.0068,0.0067,0.0053,0.0052,0.0048,0.0045,0.0052,0.0051,0.0049,0.0034,0.0032,0.003,0.0025,0.0023,0.0022,0.0022,0.0022,0.0016,0.0016,0,0,0,0,0,0,0.0065,0.0062,0.007,0.0069,0.0063,0.0053,0.0053,0.0058,0.0045,0.0043,0.005,0.0049,0.0033,0.0031,0.003,0.0036,0.0022,0.0022,0.0021,0.0015,0.0016,0.0016,0,0,0,0,0,0,0.0065,0.0066,0.0071,0.0065,0.0064,0.0054,0.006,0.0058,0.0055,0.0044,0.0041,0.0049,0.0032,0.003,0.0028,0.0035,0.0021,0.0021,0.0015,0.0015,0.0016,0.0046,0,0,0,0,0,0,0.0065,0.0066,0.0069,0.0065,0.0065,0.0074,0.006,0.0058,0.0055,0.0053,0.0042,0.004,0.0032,0.0029,0.0027,0.0034,0.0021,0.0015,0.0015,0.0016,0.0045,0.0047,0.0049,0,0,0,0,0,0.0064,0.0074,0.007,0.0071,0.0071,0.0074,0.0073,0.0064,0.0055,0.0059,0.0048,0.004,0.0029,0.0028,0.0027,0.0034,0.0015,0.0015,0.0016,0.0044,0.0047,0.0049,0,0,0,0,0,0,0.0069,0.0073,0.0069,0.0079,0.0078,0.0072,0.0072,0.0066,0.006,0.0056,0.0044,0.0041,0.0041,0.0032,0.0032,0.0032,0.002,0.002,0.0042,0.0045,0.0047,0.0061,0.002,0,0,0,0,0,0.0072,0.0081,0.008,0.0087,0.0088,0.0079,0.0078,0.0073,0.0068,0.0065,0.0056,0.0046,0.0041,0.0039,0.0032,0.0035,0.0021,0.0037,0.0039,0.0041,0.0051,0.0034,0.0035,0.0017,0.0017,0.0017,0,0,0.0074,0.0078,0.0082,0.0088,0.0085,0.0096,0.0078,0.008,0.0087,0.0064,0.0068,0.0053,0.0042,0.0044,0.0043,0.0039,0.0038,0.0042,0.0044,0.0052,0.0034,0.0036,0.0038,0.0017,0.0017,0.0017,0,0,0.0089,0.0088,0.0103,0.0106,0.0107,0.0105,0.0107,0.0102,0.0098,0.01,0.0084,0.0075,0.0068,0.0062,0.0058,0.0069,0.0049,0.0063,0.0089,0.0072,0.0074,0.0075,0.0053,0.0053,0.0066,0.0066,0.0067,0,0.0091,0.0113,0.0106,0.0122,0.0129,0.0112,0.0131,0.0126,0.012,0.0123,0.0106,0.0093,0.0079,0.0085,0.0085,0.0075,0.0059,0.0081,0.0076,0.0077,0.0077,0.0055,0.0054,0.0068,0.0068,0.0068,0.0068,0,0.0122,0.0136,0.0145,0.0163,0.0168,0.018,0.0177,0.0177,0.0166,0.0164,0.0161,0.0134,0.013,0.0119,0.0106,0.0106,0.0091,0.0079,0.0071,0.0081,0.0057,0.0055,0.007,0.007,0.0069,0.0069,0,0,0.0137,0.0163,0.0166,0.0184,0.0192,0.0204,0.0214,0.0226,0.0243,0.0218,0.0232,0.0208,0.0189,0.0183,0.0158,0.014,0.0122,0.0114,0.0112,0.0096,0.0081,0.0063,0.0059,0.0108,0.0108,0.0108,0.0059,0,0.0164,0.0207,0.021,0.0247,0.0271,0.0262,0.028,0.0285,0.0282,0.0289,0.0254,0.0256,0.0215,0.021,0.0185,0.0143,0.012,0.0137,0.007,0.0069,0.0054,0.0057,0.0083,0.0041,0.0057,0.0057,0.0056,0,0.0197,0.0224,0.0267,0.0303,0.0312,0.0328,0.0358,0.0374,0.0375,0.0372,0.0357,0.0328,0.0299,0.0258,0.019,0.0202,0.0146,0.0105,0.0102,0.0077,0.0048,0.0033,0.0036,0.0053,0.0053,0.0053,0.0053,0,0.0224,0.0265,0.0303,0.0314,0.035,0.0364,0.0383,0.0399,0.0428,0.0423,0.0434,0.0391,0.0373,0.0298,0.0206,0.0199,0.0126,0.0104,0.0034,0.0031,0.0037,0.0035,0.0053,0.0053,0.0053,0.0054,0.0054,0,0.0259,0.0289,0.0318,0.0341,0.0394,0.0402,0.0457,0.0466,0.0492,0.0535,0.0479,0.0492,0.0382,0.0323,0.0229,0.0128,0.0141,0.0042,0.002,0.0047,0.0047,0.0047,0.0046,0.0052,0.0052,0.0053,0.0053,0,0.0286,0.0302,0.0352,0.0392,0.0409,0.0449,0.0511,0.0555,0.0563,0.0611,0.0609,0.0572,0.0496,0.0376,0.0259,0.0167,0.0066,0.0024,0.0058,0.0042,-0.0025,-0.0023,-0.0057,-0.0058,-0.0059,-0.0059,-0.006,0,0.0305,0.0334,0.0393,0.043,0.0449,0.0509,0.0557,0.059,0.0643,0.0666,0.0696,0.0632,0.0607,0.0424,0.0254,0.0086,0.006,-0.0009,-0.0021,-0.0018,-0.0035,-0.0032,-0.0029,-0.0007,-0.0007,-0.0007,-0.0007,0,0.0346,0.0363,0.0406,0.0482,0.0535,0.0608,0.0675,0.0727,0.0769,0.0804,0.0839,0.0815,0.0639,0.0483,0.0245,0.0133,0.0018,-0.0017,-0.0016,0.0018,0.0026,0.001,0.0012,-0.0008,-0.0008,-0.0008,-0.0008,-0.0008,0.0375,0.0412,0.0467,0.0542,0.0608,0.0696,0.0764,0.0835,0.092,0.097,0.0944,0.0906,0.0718,0.0423,0.0228,0.0015,0.0019,-0.0058,-0.0056,-0.0054,-0.0039,-0.0032,-0.0074,-0.0075,-0.0075,-0.0075,-0.0075,0,0.0418,0.0457,0.0527,0.0614,0.0694,0.072,0.0838,0.0907,0.1008,0.1028,0.1045,0.0877,0.0691,0.0466,0.0157,-0.0027,-0.0032,-0.0087,-0.0052,-0.005,-0.0048,-0.0032,-0.0066,-0.0067,-0.0067,-0.0068,0,0,0.0439,0.0508,0.0543,0.0671,0.0733,0.0846,0.0917,0.1012,0.1059,0.1097,0.1065,0.0997,0.0738,0.0518,0.0275,0.01,0.0065,0.0066,0.0079,0.0151,0.0155,-0.0011,0.0019,0,0,0,0,0]}],[{"header":{"parameterUnit":"m.s-1","parameterCategory":2,"la1":30.2991,"la2":30.254,"lo1":-89.0895,"lo2":-89.0444,"dy":0.0017,"dx":0.0017,"nx":28,"ny":28,"refTime":"2025-12-18T09:00:00:Z","depth":"4","parameterNumber":2,"parameterNumberName":"U-component_of_CURRENTS"},"data":[0,0,0,0,0,0,0,0,0,0,0,0,0,0,0,0,0,0,0,0,0,0,0,0,0,0,0,0,0,0,0,0,0,0,0,0,0,0,0,0,0,0,0,0,0,0,0,0,0,0,0,0,0,0,0,0,0,0,0.1086,0.1086,0,0.111,0.111,0.1111,0.114,0.114,0.1141,0.1141,0.1175,0.1176,0.1176,0,0,0,0,0,0,0,0,0,0,0,0,0,0.1066,0.1066,0.1086,0.1086,0.1086,0.111,0.111,0.1111,0.114,0.114,0.1141,0.1142,0.1175,0.1176,0.1176,0,0,0,0,0,0,0,0,0,0,0,0,0,0.1079,0.1066,0.1086,0.1105,0.1107,0.111,0.111,0.1111,0.114,0.114,0.1141,0.1142,0.1175,0.1176,0.1176,0.1163,0,0,0.1178,0.1178,0,0,0,0,0,0,0,0,0.1079,0.108,0.1102,0.1103,0.1106,0.1124,0.1116,0.1129,0.1139,0.1126,0.1141,0.1142,0.1159,0.1161,0.1162,0.1164,0.1166,0.1178,0.1178,0.1179,0.1179,0,0,0,0,0,0,0,0.1078,0.1079,0.1094,0.1102,0.1105,0.1113,0.1116,0.1118,0.1137,0.1127,0.1129,0.1134,0.116,0.1161,0.1163,0.1166,0.1178,0.1178,0.1179,0.1179,0.1246,0.1248,0,0,0,0,0,0,0.1076,0.1078,0.1093,0.1095,0.1096,0.1113,0.1116,0.1116,0.1136,0.1141,0.1133,0.1135,0.116,0.1162,0.1164,0.1226,0.1179,0.1179,0.1179,0.1245,0.1247,0.1248,0,0,0,0,0,0,0.1076,0.1077,0.1092,0.1088,0.1091,0.1112,0.1113,0.1116,0.1145,0.1141,0.1146,0.1161,0.1161,0.1164,0.1194,0.1224,0.1179,0.118,0.1243,0.1246,0.1248,0.13,0,0,0,0,0,0,0.1075,0.1076,0.109,0.1088,0.1091,0.1111,0.1112,0.1116,0.1145,0.1149,0.1166,0.1169,0.1162,0.1194,0.1195,0.1224,0.118,0.1241,0.1244,0.1247,0.1296,0.1303,0.1309,0,0,0,0,0,0.1074,0.1083,0.1091,0.1093,0.1105,0.1112,0.1115,0.1132,0.1146,0.1161,0.1178,0.117,0.1212,0.1195,0.1196,0.1227,0.124,0.1243,0.1247,0.1293,0.1302,0.1309,0,0,0,0,0,0,0.1083,0.1086,0.1095,0.1106,0.1118,0.1118,0.1138,0.1147,0.1172,0.1187,0.1183,0.1187,0.1226,0.122,0.1201,0.1255,0.1227,0.123,0.1261,0.127,0.1276,0.1278,0.1181,0,0,0,0,0,0.109,0.11,0.1104,0.1118,0.1127,0.1138,0.115,0.1162,0.1176,0.1189,0.1201,0.1218,0.1235,0.1248,0.1258,0.1284,0.1281,0.1307,0.1313,0.1319,0.1323,0.1351,0.1361,0.1259,0.1259,0.1259,0,0,0.1099,0.1103,0.111,0.1122,0.1135,0.1149,0.1148,0.1175,0.1194,0.1188,0.1229,0.1242,0.1248,0.128,0.1298,0.1282,0.1347,0.1323,0.1328,0.1329,0.1356,0.1365,0.1374,0.1261,0.1261,0.1261,0,0,0.1111,0.1126,0.1137,0.1148,0.1172,0.1178,0.1192,0.1209,0.1229,0.1264,0.1268,0.1302,0.1326,0.1335,0.1342,0.1392,0.1382,0.1402,0.1437,0.1465,0.1473,0.1481,0.1487,0.1494,0.1405,0.1405,0.1405,0,0.1127,0.1135,0.1144,0.1157,0.1173,0.1194,0.1212,0.123,0.1258,0.1284,0.1289,0.1348,0.1351,0.1389,0.1409,0.1407,0.1416,0.1404,0.1473,0.1481,0.1487,0.1492,0.1499,0.1408,0.1407,0.1407,0.1407,0,0.1135,0.1156,0.1166,0.1189,0.1207,0.123,0.1251,0.1284,0.1318,0.1339,0.1399,0.141,0.1446,0.1455,0.1447,0.15,0.1488,0.1478,0.1451,0.1501,0.1502,0.1509,0.1412,0.1411,0.141,0.1409,0,0,0.1134,0.1166,0.1175,0.1192,0.1229,0.1241,0.1286,0.1328,0.1368,0.1411,0.1461,0.1499,0.152,0.1529,0.1529,0.1552,0.1602,0.1541,0.1541,0.1542,0.1657,0.1534,0.1529,0.1611,0.1612,0.1614,0.1638,0,0.1145,0.1171,0.1188,0.1227,0.1242,0.128,0.1316,0.1363,0.141,0.1463,0.15,0.1549,0.1543,0.157,0.1595,0.1602,0.1624,0.1595,0.1612,0.1612,0.1493,0.1535,0.1619,0.1643,0.1644,0.1645,0.1646,0,0.1143,0.1163,0.1198,0.1245,0.1258,0.1291,0.1363,0.14,0.1477,0.1518,0.1581,0.1607,0.1656,0.164,0.1688,0.1675,0.1674,0.1673,0.1674,0.1545,0.1502,0.1584,0.1658,0.1657,0.1656,0.1656,0.1655,0,0.1122,0.1169,0.12,0.1215,0.1271,0.1311,0.1354,0.1429,0.1473,0.1562,0.1607,0.1667,0.1706,0.1727,0.1732,0.1722,0.1769,0.1751,0.1638,0.1629,0.1709,0.1701,0.1784,0.1784,0.1784,0.1784,0.1784,0,0.1107,0.1136,0.12,0.1214,0.1267,0.1313,0.1384,0.1437,0.1519,0.1569,0.1639,0.1675,0.1735,0.1764,0.1757,0.1715,0.1794,0.1648,0.1631,0.173,0.1724,0.1714,0.1705,0.1785,0.1785,0.1785,0.1784,0,0.1072,0.1113,0.1154,0.1226,0.1257,0.13,0.1396,0.1436,0.1527,0.1593,0.1625,0.1706,0.1735,0.1766,0.1794,0.1733,0.1711,0.1676,0.1778,0.1766,0.1545,0.154,0.1549,0.1544,0.1541,0.1538,0.1536,0,0.105,0.1069,0.1158,0.1186,0.1226,0.1297,0.1339,0.1435,0.1473,0.1589,0.1604,0.1676,0.1711,0.1652,0.1693,0.1668,0.1645,0.162,0.1581,0.154,0.1524,0.1523,0.1522,0.153,0.1529,0.1528,0.1528,0,0.101,0.1057,0.109,0.1151,0.1202,0.1247,0.1315,0.1335,0.1434,0.153,0.1541,0.1546,0.1571,0.1573,0.1567,0.1548,0.1628,0.1583,0.159,0.1553,0.1518,0.1505,0.1508,0.1516,0.1517,0.1518,0.1519,0,0.0988,0.1001,0.1054,0.1097,0.1156,0.117,0.1217,0.1248,0.1297,0.1417,0.1417,0.1482,0.1559,0.151,0.1505,0.1476,0.1444,0.1383,0.14,0.1413,0.1355,0.129,0.1206,0,0,0,0,0,0.0955,0.0955,0.099,0.1022,0.1074,0.1107,0.1182,0.1226,0.1323,0.1293,0.1351,0.1362,0.135,0.1384,0.1322,0.1436,0.1449,0.1357,0.1389,0.1449,0.1463,0.1404,0,0,0,0,0,0,0.0928,0.0958,0.0961,0.0949,0.0955,0.0996,0.1039,0.1104,0.1093,0.1196,0.1198,0.1271,0.1283,0.1369,0.1295,0.1303,0.129,0.1401,0.1396,0.1442,0.1454,0.1465,0.1409,0,0,0,0,0]},{"header":{"parameterUnit":"m.s-1","parameterCategory":2,"la1":30.2991,"la2":30.254,"lo1":-89.0895,"lo2":-89.0444,"dy":0.0017,"dx":0.0017,"nx":28,"ny":28,"refTime":"2025-12-18T09:00:00:Z","depth":"4","parameterNumber":3,"parameterNumberName":"V-component_of_CURRENTS"},"data":[0,0,0,0,0,0,0,0,0,0,0,0,0,0,0,0,0,0,0,0,0,0,0,0,0,0,0,0,0,0,0,0,0,0,0,0,0,0,0,0,0,0,0,0,0,0,0,0,0,0,0,0,0,0,0,0,0,0,0.0233,0.0233,0,0.023,0.023,0.023,0.0226,0.0226,0.0226,0.0226,0.0223,0.0223,0.0223,0,0,0,0,0,0,0,0,0,0,0,0,0,0.0215,0.0215,0.0233,0.0233,0.0233,0.023,0.023,0.023,0.0226,0.0226,0.0226,0.0226,0.0223,0.0223,0.0223,0,0,0,0,0,0,0,0,0,0,0,0,0,0.0218,0.0215,0.0234,0.0231,0.0231,0.023,0.023,0.023,0.0226,0.0226,0.0226,0.0226,0.0223,0.0223,0.0223,0.0226,0,0,0.0224,0.0224,0,0,0,0,0,0,0,0,0.0218,0.0219,0.0231,0.0231,0.0231,0.0228,0.0222,0.0228,0.0226,0.0228,0.0226,0.0226,0.0225,0.0225,0.0225,0.0226,0.0226,0.0224,0.0224,0.0224,0.0224,0,0,0,0,0,0,0,0.0218,0.0219,0.0232,0.0231,0.0231,0.0222,0.0223,0.0223,0.0228,0.0228,0.0228,0.0227,0.0225,0.0225,0.0225,0.0226,0.0224,0.0224,0.0224,0.0224,0.0227,0.0227,0,0,0,0,0,0,0.0219,0.0219,0.0232,0.0232,0.0224,0.0222,0.0223,0.0229,0.0228,0.0227,0.0227,0.0227,0.0225,0.0225,0.0225,0.0235,0.0224,0.0224,0.0224,0.0227,0.0227,0.0227,0,0,0,0,0,0,0.0219,0.0221,0.0233,0.0225,0.0226,0.0223,0.023,0.0229,0.0232,0.0227,0.0226,0.023,0.0225,0.0225,0.0228,0.0234,0.0224,0.0224,0.0227,0.0227,0.0227,0.025,0,0,0,0,0,0,0.0218,0.0221,0.0226,0.0225,0.0226,0.0237,0.023,0.0229,0.0231,0.0231,0.0229,0.0228,0.0225,0.0228,0.0228,0.0234,0.0224,0.0227,0.0227,0.0227,0.0249,0.0251,0.0253,0,0,0,0,0,0.0218,0.0228,0.0227,0.0228,0.0234,0.0237,0.0237,0.0235,0.0231,0.0236,0.0233,0.0229,0.0229,0.0229,0.0228,0.0235,0.0227,0.0227,0.0227,0.0249,0.0251,0.0253,0,0,0,0,0,0,0.0222,0.0228,0.0227,0.0238,0.0239,0.0237,0.024,0.0237,0.0239,0.0238,0.0232,0.0232,0.0236,0.0232,0.0231,0.0235,0.0226,0.0227,0.0243,0.0245,0.0246,0.0253,0.0224,0,0,0,0,0,0.0225,0.0236,0.0236,0.0245,0.0246,0.0243,0.0244,0.0243,0.0242,0.0243,0.0241,0.0237,0.0237,0.0238,0.0236,0.0241,0.0225,0.0243,0.0245,0.0246,0.0251,0.023,0.023,0.0228,0.0228,0.0228,0,0,0.0229,0.0233,0.0239,0.0247,0.0247,0.0256,0.0244,0.0248,0.0256,0.0242,0.0252,0.0244,0.0239,0.0244,0.0245,0.0241,0.0237,0.0247,0.0248,0.0252,0.023,0.023,0.023,0.0228,0.0228,0.0228,0,0,0.0242,0.0246,0.0259,0.0262,0.0265,0.0264,0.0267,0.0266,0.0266,0.0273,0.0263,0.0259,0.0262,0.0256,0.0255,0.0264,0.0246,0.0263,0.0279,0.0258,0.0258,0.0258,0.0234,0.0231,0.0265,0.0265,0.0265,0,0.0245,0.0264,0.0262,0.0274,0.028,0.0271,0.0285,0.0284,0.0284,0.0288,0.028,0.0276,0.0268,0.0272,0.0274,0.0269,0.0252,0.0273,0.0261,0.026,0.026,0.0235,0.0232,0.0266,0.0266,0.0266,0.0266,0,0.0268,0.0283,0.029,0.0305,0.0311,0.0321,0.032,0.0323,0.032,0.0319,0.032,0.0304,0.0303,0.0296,0.029,0.0284,0.0272,0.0265,0.0257,0.0261,0.0234,0.0231,0.0268,0.0267,0.0267,0.0266,0,0,0.0279,0.0303,0.0306,0.0321,0.0329,0.0339,0.0349,0.0359,0.0371,0.0358,0.0368,0.0355,0.0342,0.0338,0.0321,0.0302,0.0279,0.0285,0.0283,0.0262,0.0229,0.0214,0.0209,0.0269,0.0269,0.0268,0.0211,0,0.0299,0.0331,0.0337,0.0368,0.0385,0.0383,0.0398,0.0403,0.0403,0.0407,0.0381,0.0384,0.0359,0.0357,0.0333,0.0297,0.0271,0.0295,0.0227,0.0225,0.0212,0.0205,0.0267,0.0208,0.0207,0.0206,0.0206,0,0.0321,0.0342,0.0377,0.0408,0.0415,0.0432,0.0455,0.0468,0.0468,0.0466,0.0454,0.0433,0.0406,0.038,0.0315,0.0331,0.0283,0.0248,0.0245,0.0222,0.0203,0.0203,0.0199,0.02,0.02,0.0201,0.0201,0,0.0335,0.037,0.0402,0.0412,0.0443,0.0459,0.0477,0.0489,0.051,0.0503,0.0509,0.047,0.0454,0.039,0.0315,0.0315,0.0236,0.0226,0.0163,0.0161,0.0183,0.0183,0.0173,0.0173,0.0173,0.0173,0.0173,0,0.0354,0.0381,0.0413,0.0431,0.0475,0.0486,0.0531,0.0539,0.0556,0.0582,0.0543,0.0541,0.0456,0.04,0.0325,0.0234,0.024,0.0164,0.0146,0.0193,0.0195,0.0179,0.0181,0.0171,0.0171,0.0172,0.0172,0,0.0366,0.0385,0.0427,0.0466,0.0485,0.0518,0.0574,0.0604,0.0612,0.064,0.0638,0.0596,0.0521,0.0427,0.0321,0.0252,0.0163,0.0126,0.0181,0.0167,0.0098,0.0102,0.0052,0.0051,0.0051,0.005,0.0049,0,0.0375,0.0398,0.0456,0.0487,0.0509,0.0562,0.0602,0.0631,0.0663,0.0672,0.0682,0.0622,0.0577,0.0415,0.0315,0.0163,0.014,0.0088,0.0092,0.0099,0.0086,0.0091,0.0095,0.0048,0.0048,0.0047,0.0047,0,0.0394,0.0415,0.0451,0.0517,0.0565,0.0624,0.0678,0.0702,0.0732,0.0737,0.0711,0.0626,0.0539,0.0414,0.0295,0.0188,0.012,0.0079,0.008,0.0083,0.0093,0.0082,0.0088,0.0044,0.0045,0.0045,0.0045,0,0.041,0.0438,0.0487,0.0546,0.0608,0.0665,0.0693,0.0723,0.0751,0.075,0.0739,0.0642,0.0589,0.0426,0.0319,0.0209,0.0179,0.0138,0.0135,0.0137,0.0177,0.0203,0.0171,0,0,0,0,0,0.0425,0.0459,0.0513,0.0576,0.0637,0.0677,0.0737,0.0758,0.0779,0.0762,0.0751,0.0665,0.0503,0.0439,0.0326,0.0302,0.0162,0.0164,0.0113,0.0028,0.0031,0.0062,0,0,0,0,0,0,0.0435,0.0487,0.0513,0.0591,0.0638,0.0709,0.0748,0.0764,0.0754,0.0752,0.067,0.0627,0.0475,0.0565,0.032,0.0288,0.0237,0.0092,0.0089,0.0026,0.0029,0.0032,0.0065,0,0,0,0,0]}]]